Year,Month,Day,Hour,Minute,Value (Times are PST for temperature in C)
2017,05,22,00,00,13.40
2017,05,22,00,01,13.40
2017,05,22,00,02,13.40
2017,05,22,00,03,13.30
2017,05,22,00,04,13.30
2017,05,22,00,05,13.30
2017,05,22,00,06,13.30
2017,05,22,00,07,13.30
2017,05,22,00,08,13.30
2017,05,22,00,09,13.30
2017,05,22,00,10,13.30
2017,05,22,00,11,13.30
2017,05,22,00,12,13.20
2017,05,22,00,13,13.20
2017,05,22,00,14,13.20
2017,05,22,00,15,13.20
2017,05,22,00,16,13.20
2017,05,22,00,17,13.20
2017,05,22,00,18,13.20
2017,05,22,00,19,13.20
2017,05,22,00,20,13.20
2017,05,22,00,21,13.20
2017,05,22,00,22,13.20
2017,05,22,00,23,13.20
2017,05,22,00,24,13.20
2017,05,22,00,25,13.20
2017,05,22,00,26,13.20
2017,05,22,00,27,13.20
2017,05,22,00,28,13.20
2017,05,22,00,29,13.20
2017,05,22,00,30,13.20
2017,05,22,00,31,13.20
2017,05,22,00,32,13.20
2017,05,22,00,33,13.20
2017,05,22,00,34,13.20
2017,05,22,00,35,13.20
2017,05,22,00,36,13.20
2017,05,22,00,37,13.20
2017,05,22,00,38,13.20
2017,05,22,00,39,13.20
2017,05,22,00,40,13.20
2017,05,22,00,41,13.20
2017,05,22,00,42,13.10
2017,05,22,00,43,13.10
2017,05,22,00,44,13.10
2017,05,22,00,45,13.10
2017,05,22,00,46,13.10
2017,05,22,00,47,13.10
2017,05,22,00,48,13.10
2017,05,22,00,49,13.20
2017,05,22,00,50,13.20
2017,05,22,00,51,13.20
2017,05,22,00,52,13.20
2017,05,22,00,53,13.20
2017,05,22,00,54,13.20
2017,05,22,00,55,13.20
2017,05,22,00,56,13.20
2017,05,22,00,57,13.30
2017,05,22,00,58,13.30
2017,05,22,00,59,13.30
2017,05,22,01,00,13.30
2017,05,22,01,01,13.30
2017,05,22,01,02,13.40
2017,05,22,01,03,13.40
2017,05,22,01,04,13.40
2017,05,22,01,05,13.40
2017,05,22,01,06,13.40
2017,05,22,01,07,13.40
2017,05,22,01,08,13.40
2017,05,22,01,09,13.40
2017,05,22,01,10,13.40
2017,05,22,01,11,13.40
2017,05,22,01,12,13.50
2017,05,22,01,13,13.50
2017,05,22,01,14,13.50
2017,05,22,01,15,13.50
2017,05,22,01,16,13.50
2017,05,22,01,17,13.50
2017,05,22,01,18,13.40
2017,05,22,01,19,13.40
2017,05,22,01,20,13.40
2017,05,22,01,21,13.40
2017,05,22,01,22,13.40
2017,05,22,01,23,13.40
2017,05,22,01,24,13.30
2017,05,22,01,25,13.30
2017,05,22,01,26,13.30
2017,05,22,01,27,13.30
2017,05,22,01,28,13.30
2017,05,22,01,29,13.30
2017,05,22,01,30,13.30
2017,05,22,01,31,13.20
2017,05,22,01,32,13.20
2017,05,22,01,33,13.20
2017,05,22,01,34,13.20
2017,05,22,01,35,13.20
2017,05,22,01,36,13.20
2017,05,22,01,37,13.20
2017,05,22,01,38,13.20
2017,05,22,01,39,13.10
2017,05,22,01,40,13.10
2017,05,22,01,41,13.10
2017,05,22,01,42,13.10
2017,05,22,01,43,13.10
2017,05,22,01,44,13.10
2017,05,22,01,45,13.10
2017,05,22,01,46,13.10
2017,05,22,01,47,13.00
2017,05,22,01,48,13.00
2017,05,22,01,49,12.90
2017,05,22,01,50,12.90
2017,05,22,01,51,12.90
2017,05,22,01,52,12.80
2017,05,22,01,53,12.70
2017,05,22,01,54,12.70
2017,05,22,01,55,12.70
2017,05,22,01,56,12.70
2017,05,22,01,57,12.60
2017,05,22,01,58,12.60
2017,05,22,01,59,12.60
2017,05,22,02,00,12.50
2017,05,22,02,01,12.50
2017,05,22,02,02,12.50
2017,05,22,02,03,12.40
2017,05,22,02,04,12.40
2017,05,22,02,05,12.30
2017,05,22,02,06,12.30
2017,05,22,02,07,12.30
2017,05,22,02,08,12.30
2017,05,22,02,09,12.20
2017,05,22,02,10,12.20
2017,05,22,02,11,12.20
2017,05,22,02,12,12.20
2017,05,22,02,13,12.20
2017,05,22,02,14,12.20
2017,05,22,02,15,12.10
2017,05,22,02,16,12.10
2017,05,22,02,17,12.10
2017,05,22,02,18,12.10
2017,05,22,02,19,12.10
2017,05,22,02,20,12.10
2017,05,22,02,21,12.10
2017,05,22,02,22,12.00
2017,05,22,02,23,12.00
2017,05,22,02,24,12.00
2017,05,22,02,25,12.00
2017,05,22,02,26,12.00
2017,05,22,02,27,12.00
2017,05,22,02,28,12.00
2017,05,22,02,29,11.90
2017,05,22,02,30,11.90
2017,05,22,02,31,11.90
2017,05,22,02,32,11.90
2017,05,22,02,33,11.90
2017,05,22,02,34,11.90
2017,05,22,02,35,11.90
2017,05,22,02,36,11.90
2017,05,22,02,37,11.90
2017,05,22,02,38,11.90
2017,05,22,02,39,11.90
2017,05,22,02,40,12.00
2017,05,22,02,41,12.00
2017,05,22,02,42,12.00
2017,05,22,02,43,12.10
2017,05,22,02,44,12.10
2017,05,22,02,45,12.10
2017,05,22,02,46,12.10
2017,05,22,02,47,12.10
2017,05,22,02,48,12.10
2017,05,22,02,49,12.10
2017,05,22,02,50,12.10
2017,05,22,02,51,12.10
2017,05,22,02,52,12.10
2017,05,22,02,53,12.10
2017,05,22,02,54,12.10
2017,05,22,02,55,12.10
2017,05,22,02,56,12.10
2017,05,22,02,57,12.10
2017,05,22,02,58,12.10
2017,05,22,02,59,12.10
2017,05,22,03,00,12.20
2017,05,22,03,01,12.20
2017,05,22,03,02,12.20
2017,05,22,03,03,12.20
2017,05,22,03,04,12.20
2017,05,22,03,05,12.20
2017,05,22,03,06,12.20
2017,05,22,03,07,12.20
2017,05,22,03,08,12.30
2017,05,22,03,09,12.30
2017,05,22,03,10,12.30
2017,05,22,03,11,12.30
2017,05,22,03,12,12.30
2017,05,22,03,13,12.30
2017,05,22,03,14,12.30
2017,05,22,03,15,12.30
2017,05,22,03,16,12.30
2017,05,22,03,17,12.30
2017,05,22,03,18,12.30
2017,05,22,03,19,12.30
2017,05,22,03,20,12.30
2017,05,22,03,21,12.30
2017,05,22,03,22,12.20
2017,05,22,03,23,12.20
2017,05,22,03,24,12.20
2017,05,22,03,25,12.20
2017,05,22,03,26,12.20
2017,05,22,03,27,12.20
2017,05,22,03,28,12.20
2017,05,22,03,29,12.20
2017,05,22,03,30,12.20
2017,05,22,03,31,12.20
2017,05,22,03,32,12.20
2017,05,22,03,33,12.20
2017,05,22,03,34,12.20
2017,05,22,03,35,12.20
2017,05,22,03,36,12.30
2017,05,22,03,37,12.30
2017,05,22,03,38,12.30
2017,05,22,03,39,12.30
2017,05,22,03,40,12.20
2017,05,22,03,41,12.20
2017,05,22,03,42,12.20
2017,05,22,03,43,12.20
2017,05,22,03,44,12.10
2017,05,22,03,45,12.00
2017,05,22,03,46,12.00
2017,05,22,03,47,11.90
2017,05,22,03,48,11.80
2017,05,22,03,49,11.70
2017,05,22,03,50,11.70
2017,05,22,03,51,11.70
2017,05,22,03,52,11.70
2017,05,22,03,53,11.70
2017,05,22,03,54,11.60
2017,05,22,03,55,11.60
2017,05,22,03,56,11.60
2017,05,22,03,57,11.60
2017,05,22,03,58,11.50
2017,05,22,03,59,11.50
2017,05,22,04,00,11.50
2017,05,22,04,01,11.40
2017,05,22,04,02,11.40
2017,05,22,04,03,11.30
2017,05,22,04,04,11.30
2017,05,22,04,05,11.30
2017,05,22,04,06,11.30
2017,05,22,04,07,11.20
2017,05,22,04,08,11.30
2017,05,22,04,09,11.30
2017,05,22,04,10,11.20
2017,05,22,04,11,11.20
2017,05,22,04,12,11.20
2017,05,22,04,13,11.10
2017,05,22,04,14,11.00
2017,05,22,04,15,10.90
2017,05,22,04,16,10.90
2017,05,22,04,17,10.80
2017,05,22,04,18,10.80
2017,05,22,04,19,10.80
2017,05,22,04,20,10.80
2017,05,22,04,21,10.80
2017,05,22,04,22,10.80
2017,05,22,04,23,10.80
2017,05,22,04,24,10.80
2017,05,22,04,25,10.80
2017,05,22,04,26,10.80
2017,05,22,04,27,10.80
2017,05,22,04,28,10.80
2017,05,22,04,29,10.80
2017,05,22,04,30,10.80
2017,05,22,04,31,10.80
2017,05,22,04,32,10.80
2017,05,22,04,33,10.90
2017,05,22,04,34,10.90
2017,05,22,04,35,10.90
2017,05,22,04,36,11.00
2017,05,22,04,37,11.00
2017,05,22,04,38,11.00
2017,05,22,04,39,11.00
2017,05,22,04,40,11.10
2017,05,22,04,41,11.10
2017,05,22,04,42,11.10
2017,05,22,04,43,11.20
2017,05,22,04,44,11.20
2017,05,22,04,45,11.20
2017,05,22,04,46,11.20
2017,05,22,04,47,11.20
2017,05,22,04,48,11.30
2017,05,22,04,49,11.20
2017,05,22,04,50,11.30
2017,05,22,04,51,11.20
2017,05,22,04,52,11.20
2017,05,22,04,53,11.20
2017,05,22,04,54,11.10
2017,05,22,04,55,11.10
2017,05,22,04,56,11.00
2017,05,22,04,57,11.00
2017,05,22,04,58,10.90
2017,05,22,04,59,10.90
2017,05,22,05,00,10.90
2017,05,22,05,01,10.80
2017,05,22,05,02,10.80
2017,05,22,05,03,10.80
2017,05,22,05,04,10.80
2017,05,22,05,05,10.80
2017,05,22,05,06,10.80
2017,05,22,05,07,10.70
2017,05,22,05,08,10.70
2017,05,22,05,09,10.60
2017,05,22,05,10,10.50
2017,05,22,05,11,10.50
2017,05,22,05,12,10.40
2017,05,22,05,13,10.40
2017,05,22,05,14,10.30
2017,05,22,05,15,10.30
2017,05,22,05,16,10.30
2017,05,22,05,17,10.30
2017,05,22,05,18,10.30
2017,05,22,05,19,10.30
2017,05,22,05,20,10.40
2017,05,22,05,21,10.40
2017,05,22,05,22,10.40
2017,05,22,05,23,10.40
2017,05,22,05,24,10.30
2017,05,22,05,25,10.30
2017,05,22,05,26,10.30
2017,05,22,05,27,10.20
2017,05,22,05,28,10.20
2017,05,22,05,29,10.20
2017,05,22,05,30,10.20
2017,05,22,05,31,10.20
2017,05,22,05,32,10.20
2017,05,22,05,33,10.20
2017,05,22,05,34,10.20
2017,05,22,05,35,10.20
2017,05,22,05,36,10.20
2017,05,22,05,37,10.30
2017,05,22,05,38,10.30
2017,05,22,05,39,10.30
2017,05,22,05,40,10.30
2017,05,22,05,41,10.30
2017,05,22,05,42,10.40
2017,05,22,05,43,10.40
2017,05,22,05,44,10.50
2017,05,22,05,45,10.50
2017,05,22,05,46,10.50
2017,05,22,05,47,10.50
2017,05,22,05,48,10.50
2017,05,22,05,49,10.40
2017,05,22,05,50,10.40
2017,05,22,05,51,10.40
2017,05,22,05,52,10.40
2017,05,22,05,53,10.40
2017,05,22,05,54,10.40
2017,05,22,05,55,10.40
2017,05,22,05,56,10.40
2017,05,22,05,57,10.40
2017,05,22,05,58,10.40
2017,05,22,05,59,10.50
2017,05,22,06,00,10.50
2017,05,22,06,01,10.60
2017,05,22,06,02,10.60
2017,05,22,06,03,10.70
2017,05,22,06,04,10.70
2017,05,22,06,05,10.70
2017,05,22,06,06,10.70
2017,05,22,06,07,10.80
2017,05,22,06,08,10.80
2017,05,22,06,09,10.90
2017,05,22,06,10,10.90
2017,05,22,06,11,11.00
2017,05,22,06,12,11.00
2017,05,22,06,13,11.10
2017,05,22,06,14,11.20
2017,05,22,06,15,11.20
2017,05,22,06,16,11.30
2017,05,22,06,17,11.30
2017,05,22,06,18,11.40
2017,05,22,06,19,11.50
2017,05,22,06,20,11.60
2017,05,22,06,21,11.70
2017,05,22,06,22,11.80
2017,05,22,06,23,11.80
2017,05,22,06,24,11.90
2017,05,22,06,25,12.10
2017,05,22,06,26,12.20
2017,05,22,06,27,12.40
2017,05,22,06,28,12.60
2017,05,22,06,29,12.80
2017,05,22,06,30,13.00
2017,05,22,06,31,13.20
2017,05,22,06,32,13.50
2017,05,22,06,33,13.80
2017,05,22,06,34,14.00
2017,05,22,06,35,14.20
2017,05,22,06,36,14.30
2017,05,22,06,37,14.50
2017,05,22,06,38,14.70
2017,05,22,06,39,14.80
2017,05,22,06,40,14.80
2017,05,22,06,41,14.90
2017,05,22,06,42,14.90
2017,05,22,06,43,14.90
2017,05,22,06,44,14.90
2017,05,22,06,45,14.80
2017,05,22,06,46,14.80
2017,05,22,06,47,14.70
2017,05,22,06,48,14.70
2017,05,22,06,49,14.60
2017,05,22,06,50,14.60
2017,05,22,06,51,14.50
2017,05,22,06,52,14.50
2017,05,22,06,53,14.40
2017,05,22,06,54,14.30
2017,05,22,06,55,14.30
2017,05,22,06,56,14.30
2017,05,22,06,57,14.20
2017,05,22,06,58,14.20
2017,05,22,06,59,14.20
2017,05,22,07,00,14.20
2017,05,22,07,01,14.10
2017,05,22,07,02,14.10
2017,05,22,07,03,14.10
2017,05,22,07,04,14.10
2017,05,22,07,05,14.10
2017,05,22,07,06,14.10
2017,05,22,07,07,14.10
2017,05,22,07,08,14.10
2017,05,22,07,09,14.20
2017,05,22,07,10,14.20
2017,05,22,07,11,14.20
2017,05,22,07,12,14.20
2017,05,22,07,13,14.20
2017,05,22,07,14,14.20
2017,05,22,07,15,14.20
2017,05,22,07,16,14.20
2017,05,22,07,17,14.20
2017,05,22,07,18,14.30
2017,05,22,07,19,14.30
2017,05,22,07,20,14.30
2017,05,22,07,21,14.30
2017,05,22,07,22,14.40
2017,05,22,07,23,14.40
2017,05,22,07,24,14.40
2017,05,22,07,25,14.50
2017,05,22,07,26,14.50
2017,05,22,07,27,14.60
2017,05,22,07,28,14.70
2017,05,22,07,29,14.70
2017,05,22,07,30,14.80
2017,05,22,07,31,14.90
2017,05,22,07,32,15.00
2017,05,22,07,33,15.10
2017,05,22,07,34,15.10
2017,05,22,07,35,15.20
2017,05,22,07,36,15.30
2017,05,22,07,37,15.30
2017,05,22,07,38,15.30
2017,05,22,07,39,15.30
2017,05,22,07,40,15.40
2017,05,22,07,41,15.40
2017,05,22,07,42,15.50
2017,05,22,07,43,15.50
2017,05,22,07,44,15.60
2017,05,22,07,45,15.60
2017,05,22,07,46,15.60
2017,05,22,07,47,15.70
2017,05,22,07,48,15.70
2017,05,22,07,49,15.70
2017,05,22,07,50,15.70
2017,05,22,07,51,15.80
2017,05,22,07,52,15.80
2017,05,22,07,53,15.90
2017,05,22,07,54,16.00
2017,05,22,07,55,16.00
2017,05,22,07,56,16.10
2017,05,22,07,57,16.10
2017,05,22,07,58,16.20
2017,05,22,07,59,16.20
2017,05,22,08,00,16.20
2017,05,22,08,01,16.20
2017,05,22,08,02,16.20
2017,05,22,08,03,16.30
2017,05,22,08,04,16.30
2017,05,22,08,05,16.30
2017,05,22,08,06,16.40
2017,05,22,08,07,16.40
2017,05,22,08,08,16.40
2017,05,22,08,09,16.40
2017,05,22,08,10,16.40
2017,05,22,08,11,16.40
2017,05,22,08,12,16.40
2017,05,22,08,13,16.40
2017,05,22,08,14,16.40
2017,05,22,08,15,16.50
2017,05,22,08,16,16.50
2017,05,22,08,17,16.50
2017,05,22,08,18,16.60
2017,05,22,08,19,16.60
2017,05,22,08,20,16.70
2017,05,22,08,21,16.70
2017,05,22,08,22,16.70
2017,05,22,08,23,16.70
2017,05,22,08,24,16.70
2017,05,22,08,25,16.70
2017,05,22,08,26,16.70
2017,05,22,08,27,16.80
2017,05,22,08,28,16.80
2017,05,22,08,29,16.90
2017,05,22,08,30,17.00
2017,05,22,08,31,17.00
2017,05,22,08,32,17.10
2017,05,22,08,33,17.10
2017,05,22,08,34,17.20
2017,05,22,08,35,17.20
2017,05,22,08,36,17.30
2017,05,22,08,37,17.30
2017,05,22,08,38,17.30
2017,05,22,08,39,17.30
2017,05,22,08,40,17.30
2017,05,22,08,41,17.20
2017,05,22,08,42,17.20
2017,05,22,08,43,17.30
2017,05,22,08,44,17.30
2017,05,22,08,45,17.40
2017,05,22,08,46,17.50
2017,05,22,08,47,17.60
2017,05,22,08,48,17.70
2017,05,22,08,49,17.70
2017,05,22,08,50,17.80
2017,05,22,08,51,17.80
2017,05,22,08,52,17.90
2017,05,22,08,53,17.90
2017,05,22,08,54,18.00
2017,05,22,08,55,18.10
2017,05,22,08,56,18.20
2017,05,22,08,57,18.30
2017,05,22,08,58,18.50
2017,05,22,08,59,18.60
2017,05,22,09,00,18.70
2017,05,22,09,01,18.70
2017,05,22,09,02,18.80
2017,05,22,09,03,18.80
2017,05,22,09,04,18.90
2017,05,22,09,05,19.00
2017,05,22,09,06,19.10
2017,05,22,09,07,19.10
2017,05,22,09,08,19.10
2017,05,22,09,09,19.20
2017,05,22,09,10,19.20
2017,05,22,09,11,19.20
2017,05,22,09,12,19.20
2017,05,22,09,13,19.20
2017,05,22,09,14,19.20
2017,05,22,09,15,19.20
2017,05,22,09,16,19.10
2017,05,22,09,17,19.10
2017,05,22,09,18,19.10
2017,05,22,09,19,19.00
2017,05,22,09,20,19.00
2017,05,22,09,21,19.00
2017,05,22,09,22,19.00
2017,05,22,09,23,19.10
2017,05,22,09,24,19.10
2017,05,22,09,25,19.20
2017,05,22,09,26,19.20
2017,05,22,09,27,19.10
2017,05,22,09,28,19.10
2017,05,22,09,29,19.10
2017,05,22,09,30,19.10
2017,05,22,09,31,19.20
2017,05,22,09,32,19.20
2017,05,22,09,33,19.20
2017,05,22,09,34,19.20
2017,05,22,09,35,19.10
2017,05,22,09,36,19.10
2017,05,22,09,37,19.10
2017,05,22,09,38,19.00
2017,05,22,09,39,19.00
2017,05,22,09,40,19.00
2017,05,22,09,41,18.90
2017,05,22,09,42,18.90
2017,05,22,09,43,18.90
2017,05,22,09,44,18.80
2017,05,22,09,45,18.80
2017,05,22,09,46,18.80
2017,05,22,09,47,18.80
2017,05,22,09,48,18.80
2017,05,22,09,49,18.80
2017,05,22,09,50,18.80
2017,05,22,09,51,18.90
2017,05,22,09,52,18.90
2017,05,22,09,53,19.00
2017,05,22,09,54,19.00
2017,05,22,09,55,19.00
2017,05,22,09,56,18.90
2017,05,22,09,57,18.90
2017,05,22,09,58,18.90
2017,05,22,09,59,18.90
2017,05,22,10,00,18.80
2017,05,22,10,01,18.80
2017,05,22,10,02,18.80
2017,05,22,10,03,18.80
2017,05,22,10,04,18.80
2017,05,22,10,05,18.90
2017,05,22,10,06,18.90
2017,05,22,10,07,19.00
2017,05,22,10,08,19.10
2017,05,22,10,09,19.20
2017,05,22,10,10,19.20
2017,05,22,10,11,19.20
2017,05,22,10,12,19.20
2017,05,22,10,13,19.30
2017,05,22,10,14,19.30
2017,05,22,10,15,19.30
2017,05,22,10,16,19.30
2017,05,22,10,17,19.30
2017,05,22,10,18,19.30
2017,05,22,10,19,19.30
2017,05,22,10,20,19.30
2017,05,22,10,21,19.30
2017,05,22,10,22,19.30
2017,05,22,10,23,19.40
2017,05,22,10,24,19.40
2017,05,22,10,25,19.40
2017,05,22,10,26,19.40
2017,05,22,10,27,19.50
2017,05,22,10,28,19.60
2017,05,22,10,29,19.60
2017,05,22,10,30,19.70
2017,05,22,10,31,19.70
2017,05,22,10,32,19.70
2017,05,22,10,33,19.70
2017,05,22,10,34,19.70
2017,05,22,10,35,19.70
2017,05,22,10,36,19.70
2017,05,22,10,37,19.80
2017,05,22,10,38,19.80
2017,05,22,10,39,19.90
2017,05,22,10,40,19.90
2017,05,22,10,41,19.90
2017,05,22,10,42,19.90
2017,05,22,10,43,19.90
2017,05,22,10,44,19.80
2017,05,22,10,45,19.90
2017,05,22,10,46,19.90
2017,05,22,10,47,20.00
2017,05,22,10,48,20.00
2017,05,22,10,49,20.10
2017,05,22,10,50,20.20
2017,05,22,10,51,20.10
2017,05,22,10,52,20.10
2017,05,22,10,53,20.10
2017,05,22,10,54,20.10
2017,05,22,10,55,20.10
2017,05,22,10,56,20.10
2017,05,22,10,57,20.00
2017,05,22,10,58,20.00
2017,05,22,10,59,20.00
2017,05,22,11,00,19.90
2017,05,22,11,01,20.00
2017,05,22,11,02,20.10
2017,05,22,11,03,20.10
2017,05,22,11,04,20.20
2017,05,22,11,05,20.20
2017,05,22,11,06,20.30
2017,05,22,11,07,20.30
2017,05,22,11,08,20.30
2017,05,22,11,09,20.20
2017,05,22,11,10,20.20
2017,05,22,11,11,20.10
2017,05,22,11,12,20.10
2017,05,22,11,13,20.20
2017,05,22,11,14,20.20
2017,05,22,11,15,20.30
2017,05,22,11,16,20.30
2017,05,22,11,17,20.40
2017,05,22,11,18,20.40
2017,05,22,11,19,20.40
2017,05,22,11,20,20.40
2017,05,22,11,21,20.30
2017,05,22,11,22,20.30
2017,05,22,11,23,20.30
2017,05,22,11,24,20.40
2017,05,22,11,25,20.40
2017,05,22,11,26,20.40
2017,05,22,11,27,20.50
2017,05,22,11,28,20.50
2017,05,22,11,29,20.60
2017,05,22,11,30,20.60
2017,05,22,11,31,20.70
2017,05,22,11,32,20.80
2017,05,22,11,33,20.90
2017,05,22,11,34,21.00
2017,05,22,11,35,21.10
2017,05,22,11,36,21.10
2017,05,22,11,37,21.20
2017,05,22,11,38,21.20
2017,05,22,11,39,21.20
2017,05,22,11,40,21.10
2017,05,22,11,41,21.00
2017,05,22,11,42,20.90
2017,05,22,11,43,21.00
2017,05,22,11,44,21.00
2017,05,22,11,45,20.90
2017,05,22,11,46,21.00
2017,05,22,11,47,21.10
2017,05,22,11,48,21.10
2017,05,22,11,49,21.10
2017,05,22,11,50,21.10
2017,05,22,11,51,21.20
2017,05,22,11,52,21.20
2017,05,22,11,53,21.20
2017,05,22,11,54,21.10
2017,05,22,11,55,21.00
2017,05,22,11,56,21.00
2017,05,22,11,57,21.10
2017,05,22,11,58,21.10
2017,05,22,11,59,21.10
2017,05,22,12,00,21.10
2017,05,22,12,01,21.20
2017,05,22,12,02,21.20
2017,05,22,12,03,21.30
2017,05,22,12,04,21.30
2017,05,22,12,05,21.20
2017,05,22,12,06,21.20
2017,05,22,12,07,21.20
2017,05,22,12,08,21.20
2017,05,22,12,09,21.20
2017,05,22,12,10,21.10
2017,05,22,12,11,20.90
2017,05,22,12,12,20.90
2017,05,22,12,13,20.90
2017,05,22,12,14,20.90
2017,05,22,12,15,21.00
2017,05,22,12,16,21.00
2017,05,22,12,17,21.10
2017,05,22,12,18,21.10
2017,05,22,12,19,21.00
2017,05,22,12,20,20.90
2017,05,22,12,21,20.80
2017,05,22,12,22,20.80
2017,05,22,12,23,20.80
2017,05,22,12,24,20.80
2017,05,22,12,25,20.80
2017,05,22,12,26,20.70
2017,05,22,12,27,20.60
2017,05,22,12,28,20.60
2017,05,22,12,29,20.50
2017,05,22,12,30,20.40
2017,05,22,12,31,20.40
2017,05,22,12,32,20.40
2017,05,22,12,33,20.40
2017,05,22,12,34,20.40
2017,05,22,12,35,20.40
2017,05,22,12,36,20.50
2017,05,22,12,37,20.40
2017,05,22,12,38,20.40
2017,05,22,12,39,20.50
2017,05,22,12,40,20.60
2017,05,22,12,41,20.70
2017,05,22,12,42,20.70
2017,05,22,12,43,20.60
2017,05,22,12,44,20.60
2017,05,22,12,45,20.60
2017,05,22,12,46,20.70
2017,05,22,12,47,20.70
2017,05,22,12,48,20.80
2017,05,22,12,49,20.80
2017,05,22,12,50,20.80
2017,05,22,12,51,20.80
2017,05,22,12,52,20.80
2017,05,22,12,53,20.70
2017,05,22,12,54,20.70
2017,05,22,12,55,20.70
2017,05,22,12,56,20.80
2017,05,22,12,57,20.80
2017,05,22,12,58,20.90
2017,05,22,12,59,20.90
2017,05,22,13,00,20.90
2017,05,22,13,01,20.80
2017,05,22,13,02,20.80
2017,05,22,13,03,20.80
2017,05,22,13,04,20.80
2017,05,22,13,05,20.70
2017,05,22,13,06,20.70
2017,05,22,13,07,20.80
2017,05,22,13,08,20.80
2017,05,22,13,09,20.80
2017,05,22,13,10,20.70
2017,05,22,13,11,20.70
2017,05,22,13,12,20.80
2017,05,22,13,13,20.80
2017,05,22,13,14,20.90
2017,05,22,13,15,21.00
2017,05,22,13,16,21.10
2017,05,22,13,17,21.30
2017,05,22,13,18,21.30
2017,05,22,13,19,21.20
2017,05,22,13,20,21.10
2017,05,22,13,21,21.10
2017,05,22,13,22,21.10
2017,05,22,13,23,21.00
2017,05,22,13,24,20.90
2017,05,22,13,25,20.90
2017,05,22,13,26,20.90
2017,05,22,13,27,20.90
2017,05,22,13,28,20.90
2017,05,22,13,29,21.00
2017,05,22,13,30,21.10
2017,05,22,13,31,21.30
2017,05,22,13,32,21.50
2017,05,22,13,33,21.50
2017,05,22,13,34,21.60
2017,05,22,13,35,21.50
2017,05,22,13,36,21.50
2017,05,22,13,37,21.50
2017,05,22,13,38,21.50
2017,05,22,13,39,21.50
2017,05,22,13,40,21.40
2017,05,22,13,41,21.40
2017,05,22,13,42,21.40
2017,05,22,13,43,21.50
2017,05,22,13,44,21.50
2017,05,22,13,45,21.40
2017,05,22,13,46,21.50
2017,05,22,13,47,21.50
2017,05,22,13,48,21.50
2017,05,22,13,49,21.50
2017,05,22,13,50,21.40
2017,05,22,13,51,21.40
2017,05,22,13,52,21.30
2017,05,22,13,53,21.30
2017,05,22,13,54,21.30
2017,05,22,13,55,21.40
2017,05,22,13,56,21.40
2017,05,22,13,57,21.40
2017,05,22,13,58,21.40
2017,05,22,13,59,21.40
2017,05,22,14,00,21.50
2017,05,22,14,01,21.60
2017,05,22,14,02,21.70
2017,05,22,14,03,21.80
2017,05,22,14,04,21.80
2017,05,22,14,05,21.80
2017,05,22,14,06,21.80
2017,05,22,14,07,21.80
2017,05,22,14,08,21.80
2017,05,22,14,09,21.80
2017,05,22,14,10,21.80
2017,05,22,14,11,21.90
2017,05,22,14,12,22.00
2017,05,22,14,13,22.10
2017,05,22,14,14,22.20
2017,05,22,14,15,22.20
2017,05,22,14,16,22.20
2017,05,22,14,17,22.10
2017,05,22,14,18,22.10
2017,05,22,14,19,22.10
2017,05,22,14,20,22.10
2017,05,22,14,21,22.20
2017,05,22,14,22,22.20
2017,05,22,14,23,22.10
2017,05,22,14,24,22.10
2017,05,22,14,25,22.10
2017,05,22,14,26,22.30
2017,05,22,14,27,22.40
2017,05,22,14,28,22.50
2017,05,22,14,29,22.40
2017,05,22,14,30,22.40
2017,05,22,14,31,22.30
2017,05,22,14,32,22.30
2017,05,22,14,33,22.30
2017,05,22,14,34,22.30
2017,05,22,14,35,22.30
2017,05,22,14,36,22.40
2017,05,22,14,37,22.60
2017,05,22,14,38,22.70
2017,05,22,14,39,22.70
2017,05,22,14,40,22.80
2017,05,22,14,41,22.80
2017,05,22,14,42,22.90
2017,05,22,14,43,22.90
2017,05,22,14,44,22.80
2017,05,22,14,45,22.80
2017,05,22,14,46,22.80
2017,05,22,14,47,22.80
2017,05,22,14,48,22.70
2017,05,22,14,49,22.70
2017,05,22,14,50,22.50
2017,05,22,14,51,22.50
2017,05,22,14,52,22.60
2017,05,22,14,53,22.70
2017,05,22,14,54,22.70
2017,05,22,14,55,22.80
2017,05,22,14,56,22.80
2017,05,22,14,57,22.80
2017,05,22,14,58,22.80
2017,05,22,14,59,22.80
2017,05,22,15,00,22.70
2017,05,22,15,01,22.70
2017,05,22,15,02,22.80
2017,05,22,15,03,22.80
2017,05,22,15,04,22.80
2017,05,22,15,05,22.90
2017,05,22,15,06,22.90
2017,05,22,15,07,22.90
2017,05,22,15,08,22.90
2017,05,22,15,09,22.90
2017,05,22,15,10,22.90
2017,05,22,15,11,22.90
2017,05,22,15,12,23.00
2017,05,22,15,13,23.00
2017,05,22,15,14,23.00
2017,05,22,15,15,23.00
2017,05,22,15,16,23.10
2017,05,22,15,17,23.20
2017,05,22,15,18,23.30
2017,05,22,15,19,23.50
2017,05,22,15,20,23.70
2017,05,22,15,21,23.80
2017,05,22,15,22,23.90
2017,05,22,15,23,23.90
2017,05,22,15,24,23.90
2017,05,22,15,25,24.00
2017,05,22,15,26,24.00
2017,05,22,15,27,23.90
2017,05,22,15,28,23.90
2017,05,22,15,29,23.90
2017,05,22,15,30,23.90
2017,05,22,15,31,23.90
2017,05,22,15,32,24.00
2017,05,22,15,33,24.10
2017,05,22,15,34,24.00
2017,05,22,15,35,23.90
2017,05,22,15,36,23.80
2017,05,22,15,37,23.80
2017,05,22,15,38,23.90
2017,05,22,15,39,23.90
2017,05,22,15,40,24.00
2017,05,22,15,41,24.10
2017,05,22,15,42,24.10
2017,05,22,15,43,24.20
2017,05,22,15,44,24.20
2017,05,22,15,45,24.10
2017,05,22,15,46,24.10
2017,05,22,15,47,24.00
2017,05,22,15,48,24.00
2017,05,22,15,49,24.00
2017,05,22,15,50,24.10
2017,05,22,15,51,24.20
2017,05,22,15,52,24.30
2017,05,22,15,53,24.40
2017,05,22,15,54,24.40
2017,05,22,15,55,24.40
2017,05,22,15,56,24.40
2017,05,22,15,57,24.40
2017,05,22,15,58,24.50
2017,05,22,15,59,24.60
2017,05,22,16,00,24.60
2017,05,22,16,01,24.70
2017,05,22,16,02,24.70
2017,05,22,16,03,24.80
2017,05,22,16,04,24.90
2017,05,22,16,05,24.90
2017,05,22,16,06,24.90
2017,05,22,16,07,24.90
2017,05,22,16,08,25.00
2017,05,22,16,09,25.10
2017,05,22,16,10,25.20
2017,05,22,16,11,25.20
2017,05,22,16,12,25.20
2017,05,22,16,13,25.00
2017,05,22,16,14,24.90
2017,05,22,16,15,24.80
2017,05,22,16,16,24.80
2017,05,22,16,17,24.70
2017,05,22,16,18,24.80
2017,05,22,16,19,24.80
2017,05,22,16,20,24.80
2017,05,22,16,21,24.70
2017,05,22,16,22,24.70
2017,05,22,16,23,24.70
2017,05,22,16,24,24.70
2017,05,22,16,25,24.70
2017,05,22,16,26,24.70
2017,05,22,16,27,24.80
2017,05,22,16,28,24.80
2017,05,22,16,29,25.00
2017,05,22,16,30,25.10
2017,05,22,16,31,25.30
2017,05,22,16,32,25.40
2017,05,22,16,33,25.50
2017,05,22,16,34,25.60
2017,05,22,16,35,25.70
2017,05,22,16,36,25.70
2017,05,22,16,37,25.80
2017,05,22,16,38,25.90
2017,05,22,16,39,26.00
2017,05,22,16,40,26.10
2017,05,22,16,41,26.10
2017,05,22,16,42,26.00
2017,05,22,16,43,26.00
2017,05,22,16,44,25.90
2017,05,22,16,45,25.80
2017,05,22,16,46,25.70
2017,05,22,16,47,25.70
2017,05,22,16,48,25.60
2017,05,22,16,49,25.60
2017,05,22,16,50,25.60
2017,05,22,16,51,25.60
2017,05,22,16,52,25.60
2017,05,22,16,53,25.60
2017,05,22,16,54,25.60
2017,05,22,16,55,25.50
2017,05,22,16,56,25.40
2017,05,22,16,57,25.30
2017,05,22,16,58,25.30
2017,05,22,16,59,25.30
2017,05,22,17,00,25.40
2017,05,22,17,01,25.40
2017,05,22,17,02,25.40
2017,05,22,17,03,25.40
2017,05,22,17,04,25.30
2017,05,22,17,05,25.30
2017,05,22,17,06,25.40
2017,05,22,17,07,25.40
2017,05,22,17,08,25.50
2017,05,22,17,09,25.60
2017,05,22,17,10,25.70
2017,05,22,17,11,25.70
2017,05,22,17,12,25.60
2017,05,22,17,13,25.50
2017,05,22,17,14,25.40
2017,05,22,17,15,25.30
2017,05,22,17,16,25.30
2017,05,22,17,17,25.30
2017,05,22,17,18,25.30
2017,05,22,17,19,25.30